Weather History for KVPS - September, 2014

Change the Weather History Date:

Friday, September 26, 2014

  Actual Average Record
Temperature  
Mean Temperature 71 °F -  
Max Temperature 81 °F 86 °F 94 °F (1961)
Min Temperature 61 °F 62 °F 47 °F (1975)
Cooling Degree Days 6    
Growing Degree Days 21 (Base 50)    
Moisture  
Dew Point 62 °F    
Average Humidity 74    
Maximum Humidity 94    
Minimum Humidity 53    
Precipitation  
Precipitation 0.00 in - - ()
Sea Level Pressure  
Sea Level Pressure 30.08 in    
Wind  
Wind Speed 6 mph (ENE)    
Max Wind Speed 13 mph    
Max Gust Speed -    
Visibility 10 miles    
Events      
Averages and records for this station are not official NWS values.
T = Trace of Precipitation, MM = Missing Value Source: NWS Daily Summary

Daily Weather History Graph

Daily Weather History Graph

Search for Another Location

Airport or City:

Trip Planner

Search our weather history database for the weather conditions in past years. The results will help you decide how hot, cold, wet, or windy it might be!

Date:

Astronomy

Sep. 26, 2014 Rise Set
Actual Time 6:36 AM CDT 6:37 PM CDT
Civil Twilight 6:12 AM CDT 7:01 PM CDT
Nautical Twilight 5:44 AM CDT 7:29 PM CDT
Astronomical Twilight 5:16 AM CDT 7:57 PM CDT
Moon 8:41 AM CDT (9/26) 8:09 PM CDT (9/26)
Length of Visible Light 12h 48m
Length of Day
12h 00m
Waxing Crescent, 6% of the Moon is Illuminated
Sep 26
Waxing Crescent
Oct 1
First Quarter
Oct 8
Full
Oct 15
Last Quarter
Oct 23
New

Hourly Weather History & Observations

Time (CDT) Temp. Heat Index Dew Point Humidity Pressure Visibility Wind Dir Wind Speed Gust Speed Precip Events Conditions
12:55 AM 63.7 °F - 60.4 °F 89% 30.11 in 10.0 mi NNE 4.6 mph - N/A   Partly Cloudy
1:55 AM 63.1 °F - 60.4 °F 91% 30.09 in 10.0 mi NNE 4.6 mph - N/A   Scattered Clouds
2:55 AM 62.4 °F - 60.1 °F 92% 30.06 in 10.0 mi NNE 5.8 mph - N/A   Scattered Clouds
3:55 AM 62.2 °F - 60.3 °F 93% 30.05 in 10.0 mi NNE 5.8 mph - N/A   Scattered Clouds
4:55 AM 62.1 °F - 60.3 °F 94% 30.07 in 10.0 mi NNE 6.9 mph - N/A   Scattered Clouds
5:55 AM 61.2 °F - 59.5 °F 94% 30.09 in 10.0 mi NNE 6.9 mph - N/A   Scattered Clouds
6:55 AM 62.6 °F - 60.6 °F 93% 30.09 in 10.0 mi NE 8.1 mph - N/A   Mostly Cloudy
7:14 AM 64.4 °F - 60.8 °F 88% 30.09 in 10.0 mi NE 6.9 mph - N/A   Mostly Cloudy
7:55 AM 65.3 °F - 62.2 °F 90% 30.10 in 10.0 mi NE 8.1 mph - N/A   Mostly Cloudy
8:55 AM 69.4 °F - 58.5 °F 68% 30.12 in 10.0 mi ENE 10.4 mph - N/A   Mostly Cloudy
9:46 AM 73.4 °F - 62.6 °F 69% 30.09 in 10.0 mi ENE 12.7 mph - N/A   Scattered Clouds
9:55 AM 74.3 °F - 63.1 °F 68% 30.11 in 10.0 mi ENE 10.4 mph - N/A   Scattered Clouds
10:55 AM 75.7 °F - 61.9 °F 62% 30.12 in 10.0 mi ENE 10.4 mph - N/A   Mostly Cloudy
11:55 AM 78.3 °F - 62.4 °F 58% 30.10 in 10.0 mi NE 6.9 mph - N/A   Scattered Clouds
12:55 PM 80.8 °F 82.1 °F 63.3 °F 55% 30.08 in 10.0 mi ESE 8.1 mph - N/A   Scattered Clouds
1:55 PM 80.4 °F 81.7 °F 62.8 °F 55% 30.06 in 10.0 mi South 5.8 mph - N/A   Mostly Cloudy
2:55 PM 81.3 °F 82.5 °F 62.6 °F 53% 30.05 in 10.0 mi SE 5.8 mph - N/A   Mostly Cloudy
3:55 PM 81.1 °F 82.3 °F 62.6 °F 53% 30.04 in 10.0 mi SSE 5.8 mph - N/A   Mostly Cloudy
4:55 PM 80.1 °F 81.2 °F 61.9 °F 54% 30.04 in 10.0 mi South 3.5 mph - N/A   Mostly Cloudy
5:55 PM 79.3 °F - 63.3 °F 58% 30.04 in 10.0 mi SE 5.8 mph - N/A   Scattered Clouds
6:56 PM 77.5 °F - 63.0 °F 61% 30.04 in 10.0 mi Variable 4.6 mph - N/A   Scattered Clouds
7:55 PM 75.9 °F - 64.6 °F 68% 30.06 in 10.0 mi NE 4.6 mph - N/A   Scattered Clouds
8:55 PM 73.0 °F - 64.4 °F 74% 30.07 in 10.0 mi NE 4.6 mph - N/A   Scattered Clouds
9:55 PM 72.3 °F - 64.4 °F 76% 30.07 in 10.0 mi NE 5.8 mph - N/A   Scattered Clouds
10:55 PM 70.9 °F - 64.2 °F 79% 30.06 in 10.0 mi NE 5.8 mph - N/A   Scattered Clouds
11:55 PM 70.2 °F - 64.2 °F 81% 30.06 in 10.0 mi NNE 4.6 mph - N/A   Scattered Clouds